Regional Weather Roundup
Issued by NWS

Home | Current Version | Previous Version | Graphics & Text | Print | Product List | Glossary On
Versions: 1 2 3 4 5 6 7 8 9 10 11 12 13 14 15 16 17 18 19 20 21 22 23 24 25 26 27 28 29 30 31 32 33 34 35 36 37 38 39 40 41 42 43 44 45 46 47 48 49 50
000
ASUS43 KIND 240309
RWRIN

WEATHER ROUNDUP FOR INDIANA
NATIONAL WEATHER SERVICE INDIANAPOLIS IN
1000 PM EST THU NOV 23 2017

NOTE: "FAIR" INDICATES FEW OR NO CLOUDS BELOW 12,000 FEET WITH NO
SIGNIFICANT WEATHER AND/OR OBSTRUCTIONS TO VISIBILITY.

* - STATION DOES NOT REPORT WEATHER SUCH AS PRECIPITATION OR FOG.

+ - STATION NOT QUALITY CONTROLLED BY THE NATIONAL WEATHER SERVICE.
    USE DATA WITH CAUTION...ESPECIALLY DEWPOINT AND RELATIVE
    HUMIDITY OBSERVATIONS.

INZ001>003-010>013-019-020-240400-
NORTHWEST INDIANA

CITY           SKY/WX    TMP DP  RH WIND       PRES   REMARKS
GARY /AIRPORT/ CLEAR     36  28  75 S5        29.93F WCI  32
KNOX *+        CLEAR     34  27  75 S7        29.95S WCI  28
LA PORTE +     CLEAR     33  26  76 SW3       29.95S
MICHIGAN CITY+ CLEAR     36  28  75 S5        29.94S WCI  32
MONTICELLO +   CLEAR     36  23  59 S6        29.97S WCI  31
RENSSELAER +   CLEAR     36  23  60 S6        29.95S WCI  31
VALPARAISO     CLEAR     36  27  69 S5        29.94F WCI  32

$$

LMZ046-743>745-240400-
SOUTHERN LAKE MICHIGAN

STATION/POSITION TIME  TEMP    WIND        PRES    WAVE
                       AIR SEA DIR/SP/G            HT
                 (UTC) (F)     (DEG/KT/KT) (MB)    (FT)
BURNS HARBOR     0213           30/  7       N/A
MICHIGAN CITY    0240   39     160/ 10/ 12   N/A

$$

INZ004-005-014>016-021>024-240400-
NORTH CENTRAL INDIANA

CITY           SKY/WX    TMP DP  RH WIND       PRES   REMARKS
GOSHEN         CLEAR     34  23  64 S6        29.95F WCI  29
LOGANSPORT +   CLEAR     32  27  80 S7        29.98S WCI  26
PERU/GRISSOM   CLEAR     32  24  72 S8        29.96F WCI  25
ROCHESTER +    CLEAR     37  27  65 S7        29.97R WCI  32
SOUTH BEND     CLEAR     33  25  72 SW6       29.95S WCI  28
WARSAW +       CLEAR     36  25  64 SW3       29.96S

$$

INZ006>009-017-018-025>027-240400-
NORTHEAST INDIANA

CITY           SKY/WX    TMP DP  RH WIND       PRES   REMARKS
AUBURN +       CLEAR     32  23  69 CALM      29.98F
FORT WAYNE     PTCLDY    32  25  75 S8        29.98F WCI  25
HUNTINGTON +   CLEAR     33  23  65 S3        29.98F
KENDALLVILLE + CLEAR     33  24  68 S5        29.96S WCI  29

$$

INZ028-029-035-036-043>045-051>053-240400-
WEST CENTRAL INDIANA

CITY           SKY/WX    TMP DP  RH WIND       PRES   REMARKS
CRAWFORDSVL +  CLEAR     31  23  73 MISG        N/A
GREENCASTLE +  CLEAR     32  21  64 S3        30.00F
LAFAYETTE      CLEAR     35  25  66 CALM      29.98S
TERRE HAUTE    CLEAR     29  23  78 CALM      30.00F

$$

INZ030>032-037>040-046>048-054>057-064-065-240400-
CENTRAL INDIANA

CITY           SKY/WX    TMP DP  RH WIND       PRES   REMARKS
CP ATTERBURY + CLEAR     28  25  86 CALM      30.03F
COLUMBUS       CLEAR     30  25  80 CALM      30.03R
FRANKFORT +    CLEAR     35  26  70 S6        29.99F WCI  30
GREENWOOD *+   CLEAR     33  25  71 S3        30.02S
INDIANAPOLIS   CLEAR     35  20  54 S5        30.01F WCI  31
-EAGLE CREEK   CLEAR     33  22  63 CALM      29.99F
KOKOMO +       CLEAR     32  24  72 S7        29.98F WCI  26
MARION +       CLEAR     31  26  80 S5        29.99F WCI  26
MT COMFORT *+  CLEAR     28  27  93 S3        30.01S
SHELBYVILLE    CLOUDY    31  23  72 S5        30.02S WCI  26
ZIONSVILLE +   CLEAR     32  24  71 S3        29.99F

$$

INZ033-034-041-042-049-050-058-059-240400-
EAST CENTRAL INDIANA

CITY           SKY/WX    TMP DP  RH WIND       PRES   REMARKS
MUNCIE         CLEAR     37  24  59 SW6       30.00F WCI  32
RICHMOND +     CLEAR     30  27  86 SW3       30.02R

$$

INZ060-061-067>069-081>083-085>088-240400-
SOUTHWEST INDIANA

CITY           SKY/WX    TMP DP  RH WIND       PRES   REMARKS
EVANSVILLE     CLEAR     34  26  72 CALM      30.03F
HUNTINGBURG +  CLEAR     34  26  72 SE6       30.03F WCI  29
WASHINGTON +   CLEAR     32  26  77 SE3       30.02F

$$

INZ062-063-066-070>080-084-089>092-240400-
SOUTH CENTRAL AND SOUTHEAST INDIANA

CITY           SKY/WX    TMP DP  RH WIND       PRES   REMARKS
BEDFORD +      CLEAR     36  21  55 CALM      30.01F
BLOOMINGTON    CLEAR     33  22  63 CALM      30.01F
MADISON *+     CLEAR     32  27  80 CALM      30.05R
NORTH VERNON + CLEAR     30  25  80 CALM      30.04R
SEYMOUR +      CLEAR     34  25  69 S3        30.03

$$




USA.gov is the U.S. government's official web portal to all federal, state and local government web resources and services.